Location: Danville Conservation Area
(38.8674°N, 91.5143°W)
Time: 01:27:25
(UTC-06:00)

Envisat - Pass Details

Date: 28 November 2021
Orbit: 764 x 766 km, 98.2° (Epoch: 23 January)

Event Time Altitude Azimuth Distance (km) Brightness Sun altitude
Rises 17:51:57 0° 222° (SW) 3,219 7.3 -12.8°
Maximum altitude 17:57:27 10° 271° (W) 2,304 6.7 -13.9°
Drops below altitude 10° 17:57:27 10° 271° (W) 2,304 6.7 -13.9°
Sets 18:03:00 0° 321° (NW) 3,238 6.6 -14.9°
